Granite Falls, MN

9:53 AM CST on December 13, 2019 (GMT -0600)
Granite Falls

Weather History for KGDB - October, 2019

Change the Weather History Date:

Friday, October 18, 2019

  Actual Average (KMVE) Record (KMVE)
Temperature  
Mean Temperature 60 °F -  
Max Temperature 73 °F 56 °F 84 °F (2005)
Min Temperature 47 °F 34 °F 18 °F (1972)
Degree Days  
Heating Degree Days 5    
Growing Degree Days 10 (Base 50)    
Moisture  
Dew Point 45 °F    
Average Humidity 67    
Maximum Humidity 85    
Minimum Humidity 40    
Precipitation  
Precipitation 0.00 in - - ()
Sea Level Pressure  
Sea Level Pressure 29.57 in    
Wind  
Wind Speed 13 mph (SSE)    
Max Wind Speed 22 mph    
Max Gust Speed 32 mph    
Visibility 10 miles    
Events      
Averages and records for this station are not official NWS values.
T = Trace of Precipitation, MM = Missing Value Source: NWS Daily Summary

Daily Weather History Graph

Daily Weather History Graph

Search for Another Location

Airport or City:

Astronomy

Oct. 18, 2019 Rise Set
Actual Time 7:41 AM CDT 6:32 PM CDT
Civil Twilight 7:11 AM CDT 7:02 PM CDT
Nautical Twilight 6:37 AM CDT 7:36 PM CDT
Astronomical Twilight 6:03 AM CDT 8:10 PM CDT
Moon 9:40 PM CDT (10/18) 12:24 PM CDT (10/18)
Length of Visible Light 11h 50m
Length of Day
10h 51m
Waning Gibbous, 78% of the Moon is Illuminated
Oct 18
Waning Gibbous
Oct 21
Last Quarter
Oct 27
New
Nov 4
First Quarter
Nov 12
Full

Hourly Weather History & Observations

Time (CDT) Temp. Dew Point Humidity Pressure Visibility Wind Dir Wind Speed Gust Speed Precip Events Conditions
12:17 AM 51.1 °F 41.9 °F 71% 29.75 in 10.0 mi ESE 12.7 mph 18.4 mph N/A   Clear
12:36 AM 50.9 °F 42.1 °F 72% 29.74 in 10.0 mi ESE 12.7 mph 19.6 mph N/A   Clear
12:55 AM 50.5 °F 42.1 °F 73% 29.73 in 10.0 mi ESE 13.8 mph 20.7 mph N/A   Clear
12:56 AM 50.5 °F 42.1 °F 73% 29.73 in 10.0 mi ESE 13.8 mph 20.7 mph N/A   Clear
1:15 AM 50.5 °F 42.6 °F 74% 29.73 in 10.0 mi ESE 15.0 mph 19.6 mph N/A   Clear
1:37 AM 50.5 °F 42.8 °F 75% 29.71 in 10.0 mi ESE 13.8 mph 20.7 mph N/A   Clear
1:56 AM 50.5 °F 42.8 °F 75% 29.71 in 10.0 mi ESE 12.7 mph 20.7 mph N/A   Clear
2:15 AM 50.0 °F 42.8 °F 76% 29.71 in 10.0 mi ESE 15.0 mph 19.6 mph N/A   Clear
2:35 AM 49.5 °F 42.8 °F 78% 29.70 in 10.0 mi ESE 13.8 mph 18.4 mph N/A   Clear
2:36 AM 49.5 °F 42.8 °F 78% 29.70 in 10.0 mi ESE 12.7 mph 18.4 mph N/A   Clear
2:59 AM 49.3 °F 42.8 °F 78% 29.69 in 10.0 mi ESE 13.8 mph 19.6 mph N/A   Clear
3:16 AM 49.1 °F 42.8 °F 79% 29.68 in 10.0 mi ESE 13.8 mph 20.7 mph N/A   Clear
3:36 AM 49.1 °F 42.8 °F 79% 29.68 in 10.0 mi ESE 12.7 mph 19.6 mph N/A   Clear
3:55 AM 49.1 °F 43.0 °F 79% 29.68 in 10.0 mi ESE 11.5 mph - N/A   Clear
3:56 AM 49.1 °F 43.0 °F 79% 29.68 in 10.0 mi ESE 12.7 mph - N/A   Clear
4:15 AM 48.9 °F 43.2 °F 80% 29.67 in 10.0 mi ESE 12.7 mph 17.3 mph N/A   Clear
4:19 AM 48.9 °F 43.0 °F 80% 29.67 in 10.0 mi ESE 11.5 mph 18.4 mph N/A   Clear
4:38 AM 48.4 °F 43.0 °F 82% 29.66 in 10.0 mi ESE 13.8 mph 18.4 mph N/A   Clear
4:56 AM 48.2 °F 42.8 °F 82% 29.65 in 10.0 mi ESE 13.8 mph 20.7 mph N/A   Clear
5:15 AM 48.2 °F 42.8 °F 82% 29.64 in 10.0 mi ESE 12.7 mph 19.6 mph N/A   Clear
5:16 AM 48.2 °F 42.8 °F 82% 29.64 in 10.0 mi ESE 13.8 mph 21.9 mph N/A   Clear
5:35 AM 48.2 °F 42.8 °F 82% 29.64 in 10.0 mi ESE 12.7 mph 21.9 mph N/A   Clear
5:36 AM 48.2 °F 42.8 °F 82% 29.64 in 10.0 mi ESE 13.8 mph 23.0 mph N/A   Clear
5:58 AM 48.2 °F 43.0 °F 82% 29.63 in 10.0 mi ESE 12.7 mph 19.6 mph N/A   Clear
6:16 AM 47.8 °F 42.8 °F 83% 29.62 in 10.0 mi ESE 13.8 mph 20.7 mph N/A   Clear
6:35 AM 48.2 °F 43.0 °F 82% 29.62 in 10.0 mi ESE 12.7 mph - N/A   Clear
6:36 AM 48.2 °F 43.0 °F 82% 29.62 in 10.0 mi ESE 13.8 mph 18.4 mph N/A   Clear
6:55 AM 48.2 °F 43.0 °F 82% 29.62 in 10.0 mi ESE 11.5 mph 20.7 mph N/A   Clear
6:56 AM 48.2 °F 43.0 °F 82% 29.62 in 10.0 mi ESE 13.8 mph 20.7 mph N/A   Clear
7:15 AM 48.2 °F 43.0 °F 82% 29.61 in 10.0 mi ESE 12.7 mph 17.3 mph N/A   Clear
7:20 AM 48.2 °F 43.0 °F 82% 29.61 in 10.0 mi ESE 13.8 mph 17.3 mph N/A   Clear
7:37 AM 47.8 °F 43.0 °F 83% 29.60 in 10.0 mi ESE 12.7 mph - N/A   Clear
7:55 AM 47.7 °F 42.8 °F 83% 29.60 in 7.0 mi ESE 12.7 mph 18.4 mph N/A   Clear
8:15 AM 48.2 °F 43.0 °F 82% 29.60 in 10.0 mi ESE 15.0 mph 19.6 mph N/A   Clear
8:16 AM 48.2 °F 43.0 °F 82% 29.60 in 10.0 mi ESE 13.8 mph 19.6 mph N/A   Clear
8:35 AM 48.2 °F 43.0 °F 82% 29.60 in 10.0 mi ESE 13.8 mph 20.7 mph N/A   Clear
8:36 AM 48.2 °F 43.0 °F 82% 29.60 in 10.0 mi ESE 13.8 mph 20.7 mph N/A   Clear
8:58 AM 49.1 °F 43.2 °F 80% 29.59 in 10.0 mi ESE 15.0 mph 21.9 mph N/A   Clear
9:17 AM 50.2 °F 43.5 °F 78% 29.58 in 10.0 mi ESE 17.3 mph 23.0 mph N/A   Clear
9:36 AM 50.9 °F 43.7 °F 76% 29.57 in 10.0 mi ESE 16.1 mph 20.7 mph N/A   Clear
9:55 AM 52.2 °F 44.4 °F 75% 29.57 in 10.0 mi SE 16.1 mph 20.7 mph N/A   Clear
9:56 AM 52.3 °F 44.4 °F 74% 29.57 in 10.0 mi SE 18.4 mph 23.0 mph N/A   Clear
10:15 AM 54.1 °F 44.8 °F 71% 29.57 in 10.0 mi SE 18.4 mph 23.0 mph N/A   Clear
10:19 AM 54.7 °F 45.0 °F 70% 29.57 in 10.0 mi SE 15.0 mph 24.2 mph N/A   Clear
10:37 AM 57.0 °F 45.7 °F 66% 29.57 in 10.0 mi SE 11.5 mph 19.6 mph N/A   Clear
10:56 AM 59.4 °F 45.5 °F 60% 29.55 in 10.0 mi SE 18.4 mph 25.3 mph N/A   Clear
11:15 AM 61.2 °F 46.0 °F 58% 29.54 in 10.0 mi SE 17.3 mph 25.3 mph N/A   Clear
11:16 AM 61.3 °F 45.9 °F 57% 29.54 in 10.0 mi SE 20.7 mph 25.3 mph N/A   Clear
11:35 AM 62.4 °F 45.7 °F 54% 29.54 in 10.0 mi SE 17.3 mph 25.3 mph N/A   Clear
11:36 AM 62.6 °F 45.7 °F 54% 29.54 in 10.0 mi SE 16.1 mph 25.3 mph N/A   Clear
11:59 AM 64.8 °F 46.2 °F 51% 29.53 in 10.0 mi SE 16.1 mph 24.2 mph N/A   Clear
12:16 PM 65.3 °F 45.7 °F 49% 29.52 in 10.0 mi SE 17.3 mph 23.0 mph N/A   Clear
12:36 PM 66.6 °F 46.2 °F 48% 29.51 in 10.0 mi SE 16.1 mph 24.2 mph N/A   Clear
12:55 PM 67.1 °F 45.9 °F 46% 29.50 in 10.0 mi SE 16.1 mph 28.8 mph N/A   Clear
12:56 PM 67.1 °F 46.0 °F 47% 29.50 in 10.0 mi SE 17.3 mph 28.8 mph N/A   Clear
1:15 PM 68.2 °F 46.4 °F 46% 29.48 in 10.0 mi SE 19.6 mph 28.8 mph N/A   Clear
1:19 PM 68.2 °F 46.2 °F 45% 29.48 in 10.0 mi SSE 19.6 mph 26.5 mph N/A   Clear
1:38 PM 68.9 °F 46.4 °F 44% 29.46 in 10.0 mi SE 17.3 mph 27.6 mph N/A   Clear
1:55 PM 69.3 °F 46.4 °F 44% 29.45 in 10.0 mi SE 19.6 mph 32.2 mph N/A   Clear
2:15 PM 70.0 °F 46.9 °F 44% 29.44 in 10.0 mi SE 21.9 mph 29.9 mph N/A   Clear
2:16 PM 70.0 °F 46.8 °F 43% 29.44 in 10.0 mi SE 18.4 mph 27.6 mph N/A   Clear
2:35 PM 70.2 °F 47.1 °F 44% 29.44 in 10.0 mi SSE 20.7 mph 27.6 mph N/A   Clear
2:36 PM 70.2 °F 47.1 °F 44% 29.44 in 10.0 mi SE 20.7 mph 27.6 mph N/A   Clear
2:58 PM 71.8 °F 47.3 °F 42% 29.44 in 10.0 mi SE 16.1 mph 27.6 mph N/A   Clear
3:16 PM 72.7 °F 47.3 °F 40% 29.44 in 10.0 mi SSE 21.9 mph 29.9 mph N/A   Clear
3:35 PM 73.2 °F 47.3 °F 40% 29.45 in 10.0 mi SSE 17.3 mph 26.5 mph N/A   Clear
3:55 PM 72.5 °F 47.3 °F 41% 29.44 in 10.0 mi SSE 15.0 mph 24.2 mph N/A   Mostly Cloudy
3:56 PM 72.5 °F 47.1 °F 40% 29.44 in 10.0 mi SSE 16.1 mph 24.2 mph N/A   Mostly Cloudy
4:15 PM 72.3 °F 47.3 °F 41% 29.44 in 10.0 mi SSE 11.5 mph - N/A   Overcast
4:20 PM 72.7 °F 47.5 °F 41% 29.44 in 10.0 mi SSE 17.3 mph 21.9 mph N/A   Overcast
4:37 PM 72.7 °F 49.1 °F 43% 29.44 in 10.0 mi SSW 17.3 mph 21.9 mph N/A   Overcast
4:55 PM 71.8 °F 49.3 °F 45% 29.45 in 10.0 mi SSW 13.8 mph 20.7 mph N/A   Overcast
5:15 PM 71.8 °F 47.8 °F 43% 29.46 in 10.0 mi SSW 16.1 mph 27.6 mph N/A   Overcast
5:35 PM 69.8 °F 48.2 °F 46% 29.47 in 10.0 mi SSW 10.4 mph 19.6 mph N/A   Mostly Cloudy
5:36 PM 69.6 °F 48.2 °F 46% 29.47 in 10.0 mi SSW 9.2 mph 19.6 mph N/A   Mostly Cloudy
5:58 PM 68.0 °F 48.9 °F 50% 29.47 in 10.0 mi SSW 5.8 mph - N/A   Mostly Cloudy
6:17 PM 65.5 °F 49.1 °F 55% 29.47 in 10.0 mi SSW 5.8 mph - N/A   Overcast
6:36 PM 65.5 °F 48.9 °F 55% 29.48 in 10.0 mi South 4.6 mph - N/A   Overcast
6:55 PM 62.4 °F 49.5 °F 63% 29.48 in 10.0 mi SW 5.8 mph - N/A   Mostly Cloudy
6:56 PM 61.3 °F 49.5 °F 65% 29.48 in 10.0 mi WSW 4.6 mph - N/A   Mostly Cloudy
7:15 PM 63.1 °F 48.4 °F 59% 29.49 in 7.0 mi SSW 4.6 mph - N/A   Mostly Cloudy
7:37 PM 58.1 °F 48.4 °F 70% 29.50 in 10.0 mi SW 6.9 mph - N/A   Clear
7:56 PM 62.1 °F 48.4 °F 61% 29.51 in 10.0 mi SW 6.9 mph - N/A   Clear
8:15 PM 61.0 °F 48.2 °F 63% 29.52 in 7.0 mi SW 9.2 mph - N/A   Clear
8:16 PM 61.0 °F 48.2 °F 63% 29.52 in 7.0 mi SW 9.2 mph - N/A   Clear
8:35 PM 57.6 °F 47.7 °F 70% 29.52 in 10.0 mi WSW 8.1 mph - N/A   Clear
8:36 PM 57.6 °F 47.7 °F 70% 29.52 in 10.0 mi WSW 8.1 mph - N/A   Clear
8:59 PM 53.4 °F 46.4 °F 77% 29.53 in 10.0 mi WSW 10.4 mph - N/A   Clear
9:16 PM 54.1 °F 47.3 °F 78% 29.54 in 7.0 mi WSW 9.2 mph - N/A   Clear
9:36 PM 51.4 °F 45.7 °F 81% 29.54 in 10.0 mi WSW 6.9 mph - N/A   Clear
9:55 PM 50.0 °F 45.5 °F 85% 29.55 in 10.0 mi WSW 9.2 mph - N/A   Clear
10:15 PM 50.9 °F 45.7 °F 82% 29.56 in 10.0 mi WSW 9.2 mph - N/A   Clear
10:19 PM 50.9 °F 45.9 °F 83% 29.56 in 7.0 mi WSW 9.2 mph - N/A   Clear
10:38 PM 51.1 °F 46.0 °F 83% 29.57 in 10.0 mi WSW 9.2 mph - N/A   Clear
10:55 PM 51.8 °F 46.4 °F 82% 29.58 in 10.0 mi West 8.1 mph - N/A   Clear
11:15 PM 51.8 °F 46.6 °F 82% 29.58 in 10.0 mi West 6.9 mph - N/A   Clear
11:16 PM 51.8 °F 46.6 °F 82% 29.58 in 10.0 mi West 5.8 mph - N/A   Clear
11:35 PM 52.3 °F 46.8 °F 81% 29.59 in 10.0 mi WSW 4.6 mph - N/A   Scattered Clouds
11:36 PM 52.3 °F 46.8 °F 81% 29.59 in 10.0 mi WSW 4.6 mph - N/A   Scattered Clouds
11:58 PM 51.1 °F 45.7 °F 82% 29.60 in 10.0 mi WSW 5.8 mph - N/A   Clear